[[{"header":{"parameterUnit":"m.s-1","parameterCategory":1,"la1":30.2991,"la2":30.254,"lo1":-89.0895,"lo2":-89.0444,"dy":0.0017,"dx":0.0017,"nx":28,"ny":28,"refTime":"2025-07-08T21:00:00:Z","depth":0,"parameterNumber":2,"parameterNumberName":"U-component_of_WINDS"},"data":[0,0,0,0,0,0,0,0,0,0,0,0,0,0,0,0,0,0,0,0,0,0,0,0,0,0,0,0,0,0,0,0,0,0,0,0,0,0,0,0,0,0,0,0,0,0,0,0,0,0,0,0,0,0,0,0,0,0,3.483,3.4832,0,3.4971,3.4973,3.4975,3.5018,3.5017,3.5016,3.5015,3.516,3.5165,3.5169,0,0,0,0,0,0,0,0,0,0,0,0,0,3.4597,3.4601,3.483,3.4832,3.4834,3.4971,3.4973,3.4975,3.5018,3.5017,3.5016,3.5015,3.5159,3.5164,3.517,0,0,0,0,0,0,0,0,0,0,0,0,0,3.4714,3.4603,3.483,3.4871,3.4877,3.4971,3.4973,3.4976,3.5018,3.5017,3.5016,3.5015,3.5157,3.5164,3.517,3.5233,0,0,3.5191,3.5194,0,0,0,0,0,0,0,0,3.4708,3.4723,3.4864,3.4869,3.4875,3.4976,3.4944,3.5062,3.5018,3.4964,3.5015,3.5014,3.51,3.5111,3.514,3.524,3.5246,3.5192,3.5196,3.5199,3.52,0,0,0,0,0,0,0,3.4699,3.4717,3.4886,3.4866,3.4872,3.4883,3.4899,3.4967,3.5036,3.4969,3.4972,3.4988,3.5103,3.5133,3.5144,3.5248,3.5191,3.5197,3.5202,3.5204,3.5407,3.5408,0,0,0,0,0,0,3.4684,3.471,3.4882,3.489,3.4787,3.4888,3.4905,3.4944,3.5036,3.5048,3.4989,3.499,3.5122,3.5136,3.5149,3.5229,3.5199,3.5205,3.5209,3.5406,3.5407,3.5409,0,0,0,0,0,0,3.4679,3.4699,3.4876,3.4801,3.4824,3.4893,3.4937,3.4948,3.4979,3.5051,3.5064,3.5008,3.5122,3.5139,3.5212,3.5234,3.5208,3.5214,3.5404,3.5406,3.5408,3.5388,0,0,0,0,0,0,3.4672,3.4697,3.4722,3.4801,3.4828,3.4936,3.4938,3.4951,3.499,3.4992,3.5072,3.5084,3.5123,3.5202,3.5219,3.5243,3.5219,3.5402,3.5405,3.5407,3.5387,3.5389,3.5391,0,0,0,0,0,3.4664,3.4711,3.4723,3.4743,3.4861,3.4938,3.4953,3.4996,3.4992,3.5017,3.5064,3.5081,3.5229,3.5209,3.5228,3.5255,3.5401,3.5404,3.5407,3.5386,3.5389,3.5391,0,0,0,0,0,0,3.4632,3.4722,3.4736,3.481,3.4866,3.4945,3.4978,3.4998,3.5056,3.5056,3.5107,3.5125,3.5193,3.5232,3.5207,3.5321,3.5316,3.5323,3.5293,3.5296,3.5298,3.5287,3.5225,0,0,0,0,0,3.4633,3.4689,3.4764,3.4822,3.4849,3.4909,3.4944,3.4972,3.5032,3.5056,3.5108,3.5165,3.5224,3.5262,3.5321,3.5393,3.5411,3.5421,3.5423,3.5424,3.543,3.547,3.5476,3.5418,3.5418,3.5418,0,0,3.4637,3.4693,3.4725,3.4817,3.4864,3.492,3.4928,3.4987,3.5029,3.5065,3.5137,3.5176,3.5244,3.5316,3.5351,3.535,3.5449,3.5428,3.5428,3.5433,3.5474,3.5479,3.5484,3.5421,3.542,3.542,0,0,3.4673,3.4721,3.4774,3.4821,3.4891,3.493,3.4943,3.5019,3.5047,3.5119,3.5147,3.5198,3.5299,3.5346,3.5383,3.5435,3.5454,3.5453,3.5463,3.5502,3.5507,3.5511,3.553,3.5536,3.5458,3.5458,3.5458,0,3.4669,3.4754,3.4799,3.4857,3.4897,3.4931,3.4986,3.5029,3.5114,3.5141,3.5139,3.5267,3.5314,3.5398,3.5411,3.544,3.5456,3.5444,3.5502,3.5507,3.5512,3.553,3.5537,3.5458,3.5458,3.5458,3.5458,0,3.4746,3.4805,3.4839,3.4921,3.4965,3.502,3.5074,3.5112,3.5137,3.5176,3.5249,3.5308,3.5379,3.5401,3.5425,3.5488,3.5485,3.5492,3.5488,3.5516,3.5534,3.5541,3.5457,3.5457,3.5457,3.5457,0,0,3.4766,3.4872,3.4884,3.4921,3.5001,3.5047,3.5104,3.5173,3.5205,3.5263,3.5312,3.5397,3.5403,3.5445,3.5475,3.551,3.5547,3.5513,3.5515,3.5517,3.5619,3.5614,3.5621,3.556,3.5562,3.5563,3.5614,0,3.4812,3.4915,3.4957,3.5041,3.5096,3.5129,3.5179,3.5233,3.5271,3.5323,3.5365,3.5424,3.5429,3.5454,3.5489,3.5535,3.5569,3.5532,3.5606,3.5608,3.5588,3.5631,3.5625,3.567,3.5621,3.5622,3.5623,0,3.488,3.4937,3.5026,3.5099,3.5124,3.5168,3.5234,3.5283,3.5345,3.5371,3.5417,3.5445,3.5506,3.5498,3.5582,3.5557,3.5589,3.5616,3.5619,3.5628,3.5617,3.564,3.5686,3.5692,3.5635,3.5634,3.5633,0,3.4885,3.4985,3.5052,3.5083,3.5169,3.5199,3.5236,3.5297,3.5336,3.5394,3.542,3.5484,3.552,3.5569,3.5613,3.5603,3.5694,3.5689,3.5716,3.5715,3.5734,3.5732,3.5785,3.5755,3.5755,3.5754,3.5754,0,3.4932,3.4985,3.5055,3.5096,3.5156,3.5204,3.5262,3.5302,3.5356,3.5405,3.5438,3.5483,3.5539,3.5591,3.5627,3.5691,3.5707,3.5729,3.5738,3.5726,3.5723,3.5748,3.5746,3.5756,3.5756,3.5756,3.5755,0,3.4949,3.4998,3.5072,3.5148,3.5168,3.5209,3.5274,3.5315,3.5354,3.5415,3.5432,3.5494,3.5557,3.5607,3.5689,3.5713,3.5781,3.579,3.576,3.5764,3.5788,3.5785,3.5859,3.5871,3.5832,3.5833,3.5833,0,3.4976,3.5017,3.5097,3.5132,3.5169,3.5225,3.5265,3.5313,3.5353,3.5426,3.5458,3.5523,3.5578,3.5678,3.573,3.5793,3.5804,3.5826,3.5814,3.5801,3.5805,3.5801,3.5806,3.5827,3.5827,3.5828,3.5828,0,3.5018,3.504,3.5096,3.516,3.5206,3.5259,3.5313,3.534,3.5398,3.5441,3.5505,3.5548,3.5632,3.5696,3.5765,3.5803,3.5825,3.5831,3.584,3.5829,3.5809,3.582,3.5763,3.5829,3.5829,3.5829,3.5829,3.5829,3.5041,3.5079,3.5141,3.5202,3.5247,3.5297,3.5338,3.5383,3.5438,3.551,3.5535,3.5601,3.5662,3.5756,3.5795,3.5847,3.5849,3.5862,3.5866,3.5869,3.5867,3.5801,3.586,3.586,3.586,3.586,3.586,0,3.5085,3.5126,3.5182,3.5256,3.5303,3.532,3.538,3.5418,3.5477,3.5531,3.5584,3.5659,3.5721,3.5778,3.5843,3.5874,3.5886,3.589,3.5888,3.5896,3.5863,3.5848,3.5879,3.5879,3.5879,3.5879,3.5879,3.5879,3.5114,3.5179,3.5209,3.5297,3.5338,3.5403,3.5436,3.5482,3.5525,3.5607,3.5659,3.5695,3.5751,3.582,3.5878,3.5893,3.5915,3.5916,3.5934,3.5901,3.5899,3.5896,3.5883,3.5921,3.5921,3.5963,3.5964,3.5964]},{"header":{"parameterUnit":"m.s-1","parameterCategory":1,"la1":30.2991,"la2":30.254,"lo1":-89.0895,"lo2":-89.0444,"dy":0.0017,"dx":0.0017,"nx":28,"ny":28,"refTime":"2025-07-08T21:00:00:Z","depth":0,"parameterNumber":3,"parameterNumberName":"V-component_of_WINDS"},"data":[0,0,0,0,0,0,0,0,0,0,0,0,0,0,0,0,0,0,0,0,0,0,0,0,0,0,0,0,0,0,0,0,0,0,0,0,0,0,0,0,0,0,0,0,0,0,0,0,0,0,0,0,0,0,0,0,0,0,-0.0719,-0.0719,0,-0.077,-0.0771,-0.0771,-0.0815,-0.0815,-0.0816,-0.0816,-0.0866,-0.0867,-0.0868,0,0,0,0,0,0,0,0,0,0,0,0,0,-0.0657,-0.0658,-0.0719,-0.072,-0.072,-0.077,-0.0771,-0.0772,-0.0815,-0.0815,-0.0816,-0.0817,-0.0866,-0.0867,-0.0868,0,0,0,0,0,0,0,0,0,0,0,0,0,-0.0693,-0.0658,-0.0719,-0.0748,-0.0751,-0.077,-0.0771,-0.0772,-0.0815,-0.0815,-0.0816,-0.0817,-0.0865,-0.0867,-0.0868,-0.0861,0,0,-0.0872,-0.0873,0,0,0,0,0,0,0,0,-0.0691,-0.0696,-0.0743,-0.0746,-0.0749,-0.0787,-0.0767,-0.0802,-0.0815,-0.079,-0.0816,-0.0817,-0.0839,-0.0843,-0.085,-0.0864,-0.0866,-0.0872,-0.0873,-0.0873,-0.0874,0,0,0,0,0,0,0,-0.0689,-0.0694,-0.0739,-0.0744,-0.0748,-0.0758,-0.0764,-0.0774,-0.081,-0.0793,-0.0796,-0.0802,-0.0841,-0.0849,-0.0852,-0.0867,-0.0872,-0.0873,-0.0874,-0.0875,-0.0879,-0.0879,0,0,0,0,0,0,-0.0682,-0.0691,-0.0738,-0.0741,-0.0722,-0.0758,-0.0765,-0.0774,-0.081,-0.0816,-0.0801,-0.0803,-0.0847,-0.085,-0.0854,-0.085,-0.0873,-0.0875,-0.0875,-0.088,-0.0879,-0.0878,0,0,0,0,0,0,-0.0681,-0.0686,-0.0735,-0.0717,-0.0724,-0.0759,-0.0769,-0.0775,-0.0783,-0.0816,-0.0823,-0.0803,-0.0847,-0.0852,-0.086,-0.0852,-0.0875,-0.0876,-0.0881,-0.088,-0.0879,-0.0841,0,0,0,0,0,0,-0.0679,-0.0685,-0.0683,-0.0717,-0.0725,-0.0741,-0.0768,-0.0775,-0.0786,-0.0789,-0.082,-0.0825,-0.0848,-0.0858,-0.0861,-0.0855,-0.0877,-0.0882,-0.088,-0.0879,-0.0843,-0.0839,-0.0836,0,0,0,0,0,-0.0676,-0.0669,-0.0683,-0.0688,-0.0723,-0.074,-0.0745,-0.0772,-0.0785,-0.0783,-0.0805,-0.0824,-0.0853,-0.0858,-0.0862,-0.0856,-0.0882,-0.0881,-0.0879,-0.0845,-0.084,-0.0836,0,0,0,0,0,0,-0.0632,-0.0674,-0.0689,-0.0693,-0.0713,-0.0748,-0.0746,-0.0766,-0.0781,-0.0784,-0.0816,-0.0823,-0.0828,-0.0843,-0.0848,-0.0853,-0.087,-0.0869,-0.0843,-0.0838,-0.0834,-0.0831,-0.0879,0,0,0,0,0,-0.0623,-0.0634,-0.067,-0.067,-0.0679,-0.0711,-0.0719,-0.0739,-0.076,-0.0769,-0.0791,-0.081,-0.0824,-0.0832,-0.0846,-0.0846,-0.0854,-0.0844,-0.084,-0.0836,-0.0835,-0.0838,-0.0835,-0.0874,-0.0874,-0.0874,0,0,-0.0604,-0.0628,-0.0633,-0.0662,-0.0679,-0.069,-0.0718,-0.0727,-0.0735,-0.077,-0.0779,-0.0796,-0.082,-0.0825,-0.0828,-0.0837,-0.0826,-0.0834,-0.0831,-0.0832,-0.0836,-0.0833,-0.0829,-0.0873,-0.0873,-0.0873,0,0,-0.0575,-0.0594,-0.0597,-0.0615,-0.0642,-0.0664,-0.0664,-0.0697,-0.071,-0.072,-0.0747,-0.0757,-0.0779,-0.0795,-0.0806,-0.0786,-0.0805,-0.0789,-0.0769,-0.0771,-0.0768,-0.0766,-0.076,-0.0757,-0.0788,-0.0788,-0.0788,0,-0.0548,-0.0566,-0.0596,-0.0605,-0.0617,-0.065,-0.0654,-0.0669,-0.0699,-0.0706,-0.0717,-0.0747,-0.0765,-0.0775,-0.077,-0.0778,-0.078,-0.0786,-0.0766,-0.0764,-0.0762,-0.0757,-0.0754,-0.0786,-0.0786,-0.0787,-0.0787,0,-0.0531,-0.0543,-0.0542,-0.0572,-0.0584,-0.059,-0.0621,-0.063,-0.0649,-0.0669,-0.068,-0.0703,-0.0724,-0.0727,-0.0745,-0.074,-0.0745,-0.076,-0.0779,-0.0756,-0.0751,-0.0749,-0.0783,-0.0784,-0.0785,-0.0785,0,0,-0.0475,-0.0523,-0.0523,-0.0537,-0.0571,-0.058,-0.0588,-0.0609,-0.0616,-0.0636,-0.0644,-0.0662,-0.0678,-0.069,-0.071,-0.0712,-0.0696,-0.0728,-0.0729,-0.0722,-0.0694,-0.0683,-0.068,-0.0709,-0.0709,-0.0709,-0.0692,0,-0.0452,-0.0469,-0.0498,-0.0505,-0.0517,-0.055,-0.0557,-0.0578,-0.0598,-0.061,-0.0632,-0.0645,-0.0664,-0.0672,-0.0675,-0.0698,-0.0691,-0.0699,-0.0717,-0.0717,-0.0711,-0.0677,-0.0665,-0.0648,-0.069,-0.069,-0.069,0,-0.0428,-0.0447,-0.0457,-0.0491,-0.0497,-0.0503,-0.0526,-0.0537,-0.0562,-0.0576,-0.0592,-0.0614,-0.0624,-0.0641,-0.0655,-0.066,-0.0669,-0.0682,-0.0682,-0.0685,-0.0702,-0.068,-0.0643,-0.0641,-0.0687,-0.0687,-0.0688,0,-0.0387,-0.0416,-0.0426,-0.0437,-0.0477,-0.0481,-0.0497,-0.0523,-0.0534,-0.0554,-0.0562,-0.0582,-0.0593,-0.0607,-0.0635,-0.0644,-0.0647,-0.0665,-0.0659,-0.0659,-0.0658,-0.0658,-0.0623,-0.0663,-0.0663,-0.0663,-0.0663,0,-0.0359,-0.0364,-0.0409,-0.0414,-0.0421,-0.0454,-0.0459,-0.0479,-0.0501,-0.0512,-0.0541,-0.055,-0.0585,-0.0598,-0.0619,-0.0629,-0.0633,-0.0645,-0.0651,-0.0643,-0.0642,-0.065,-0.0652,-0.0662,-0.0663,-0.0663,-0.0663,0,-0.0315,-0.0345,-0.0358,-0.0396,-0.0405,-0.0408,-0.044,-0.0447,-0.0469,-0.0482,-0.0487,-0.0521,-0.0538,-0.0567,-0.0592,-0.0606,-0.0612,-0.0621,-0.0604,-0.0608,-0.0601,-0.0601,-0.057,-0.0568,-0.0608,-0.0608,-0.0607,0,-0.0295,-0.03,-0.0339,-0.0348,-0.0364,-0.0379,-0.0392,-0.0425,-0.0436,-0.0466,-0.047,-0.049,-0.0507,-0.0533,-0.056,-0.0579,-0.059,-0.0578,-0.0593,-0.0585,-0.0591,-0.0591,-0.0592,-0.0574,-0.0573,-0.0573,-0.0572,0,-0.0258,-0.0273,-0.0291,-0.0314,-0.0328,-0.0348,-0.0369,-0.0375,-0.0412,-0.0424,-0.0443,-0.0456,-0.0483,-0.0503,-0.0526,-0.0543,-0.0564,-0.0568,-0.0567,-0.056,-0.055,-0.0556,-0.0596,-0.0568,-0.0569,-0.0569,-0.0569,-0.0569,-0.0226,-0.0233,-0.0261,-0.028,-0.03,-0.0319,-0.0328,-0.0352,-0.0369,-0.0394,-0.0412,-0.043,-0.0456,-0.049,-0.0506,-0.052,-0.053,-0.0529,-0.0529,-0.0529,-0.0526,-0.0547,-0.0525,-0.0525,-0.0525,-0.0525,-0.0525,0,-0.0191,-0.0212,-0.0229,-0.0258,-0.0273,-0.0293,-0.0318,-0.0329,-0.0345,-0.0368,-0.0385,-0.0407,-0.0427,-0.0456,-0.0477,-0.0483,-0.0494,-0.0488,-0.0488,-0.0492,-0.0516,-0.0515,-0.0479,-0.0479,-0.0479,-0.0479,-0.0479,-0.0479,-0.0175,-0.0187,-0.0206,-0.0229,-0.0249,-0.0268,-0.028,-0.0299,-0.0317,-0.0341,-0.0358,-0.0378,-0.0403,-0.0427,-0.0446,-0.0454,-0.0461,-0.0453,-0.0464,-0.0486,-0.049,-0.0494,-0.0493,-0.0454,-0.0454,-0.0439,-0.0439,-0.0438]}]]